Location: Bartlett
(35.2045°N, 89.8740°W)
Time: 17:59:16
(UTC+00:00)

Transit 4A - Pass Details

Date: 17 December 2025
Orbit: 867 x 974 km, 66.8° (Epoch: 14 January)

Event Time Altitude Azimuth Distance (km) Brightness Sun altitude
Rises 09:32:53 0° 330° (NNW) 3,540 - -41.8°
Reaches altitude 10° 09:35:22 10° 328° (NNW) 2,611 - -41.3°
Maximum altitude 09:41:24 70° 247° (WSW) 991 - -40.0°
Exits shadow 09:47:34 10° 164° (SSE) 2,661 10.4 -38.8°
Drops below altitude 10° 09:47:36 10° 164° (SSE) 2,669 10.4 -38.8°
Sets 09:50:10 0° 162° (SSE) 3,624 11.2 -38.3°
